• In Deutschland
  • Länderverzeichnis
  • Für 7 Tage
  • Wassertemperatur
  • Satellitenkarten
  • Wetterkarte
  • Widgets
  • user-avatar
    Anmelden

    Stündliche Wetter Kyrdshali

    Heute, 20 August, Sonntag

    Zeit Temperatur Niederschläge Wind Luftdruck Luftfeuchtigkeit
    00:00 +22°C° 0 mm 1 m/S 727 mmHg 46%
    01:00 +21°C° 0 mm 2 m/S 727 mmHg 48%
    02:00 +21°C° 0 mm 2 m/S 727 mmHg 52%
    03:00 +20°C° 0 mm 2 m/S 727 mmHg 53%
    04:00 +20°C° 0 mm 2 m/S 727 mmHg 54%
    05:00 +20°C° 0 mm 2 m/S 727 mmHg 55%
    06:00 +23°C° 0 mm 2 m/S 727 mmHg 49%
    07:00 +25°C° 0 mm 2 m/S 727 mmHg 44%
    08:00 +27°C° 0 mm 2 m/S 727 mmHg 38%
    09:00 +28°C° 0 mm 2 m/S 727 mmHg 33%
    10:00 +30°C° 0 mm 3 m/S 727 mmHg 28%
    11:00 +33°C° 0 mm 3 m/S 727 mmHg 23%
    12:00 +34°C° 0 mm 3 m/S 727 mmHg 21%
    13:00 +35°C° 0 mm 3 m/S 726 mmHg 19%
    14:00 +36°C° 0 mm 3 m/S 726 mmHg 17%
    15:00 +35°C° 0 mm 3 m/S 725 mmHg 18%
    16:00 +35°C° 0 mm 3 m/S 725 mmHg 19%
    17:00 +35°C° 0 mm 3 m/S 725 mmHg 19%
    18:00 +31°C° 0 mm 3 m/S 724 mmHg 24%
    19:00 +28°C° 0 mm 2 m/S 724 mmHg 28%
    20:00 +26°C° 0 mm 1 m/S 724 mmHg 32%
    21:00 +25°C° 0 mm 1 m/S 724 mmHg 35%
    22:00 +24°C° 0 mm 1 m/S 724 mmHg 38%
    23:00 +23°C° 0 mm 1 m/S 724 mmHg 41%

    Morgen, 21 August, Montag

    Zeit Temperatur Niederschläge Wind Luftdruck Luftfeuchtigkeit
    00:00 +23°C° 0 mm 1 m/S 724 mmHg 43%
    01:00 +22°C° 0 mm 1 m/S 724 mmHg 46%
    02:00 +22°C° 0 mm 1 m/S 724 mmHg 48%
    03:00 +21°C° 0 mm 2 m/S 724 mmHg 49%
    04:00 +21°C° 0 mm 2 m/S 724 mmHg 50%
    05:00 +21°C° 0 mm 2 m/S 723 mmHg 51%
    06:00 +23°C° 0 mm 2 m/S 724 mmHg 48%
    07:00 +24°C° 0 mm 3 m/S 724 mmHg 45%
    08:00 +26°C° 0 mm 3 m/S 724 mmHg 42%
    09:00 +27°C° 0 mm 3 m/S 724 mmHg 39%
    10:00 +29°C° 0 mm 3 m/S 724 mmHg 36%
    11:00 +30°C° 0 mm 4 m/S 725 mmHg 33%
    12:00 +30°C° 0 mm 3 m/S 724 mmHg 34%
    13:00 +31°C° 0 mm 3 m/S 724 mmHg 34%
    14:00 +31°C° 0 mm 3 m/S 724 mmHg 35%
    15:00 +29°C° 0,3 mm 3 m/S 724 mmHg 42%
    16:00 +28°C° 0,3 mm 2 m/S 723 mmHg 48%
    17:00 +26°C° 0,3 mm 2 m/S 723 mmHg 54%
    18:00 +25°C° 0,4 mm 2 m/S 723 mmHg 59%
    19:00 +24°C° 0,4 mm 2 m/S 724 mmHg 63%
    20:00 +23°C° 0,4 mm 2 m/S 724 mmHg 68%
    21:00 +21°C° 0,4 mm 2 m/S 724 mmHg 71%
    22:00 +21°C° 0,4 mm 2 m/S 724 mmHg 75%
    23:00 +20°C° 0,4 mm 2 m/S 724 mmHg 78%

    übermorgen, 22 August, Dienstag

    Zeit Temperatur Niederschläge Wind Luftdruck Luftfeuchtigkeit
    00:00 +20°C° 0,1 mm 2 m/S 724 mmHg 78%
    01:00 +19°C° 0,1 mm 2 m/S 724 mmHg 79%
    02:00 +19°C° 0,1 mm 2 m/S 724 mmHg 80%
    03:00 +19°C° 0 mm 2 m/S 725 mmHg 79%
    04:00 +19°C° 0 mm 2 m/S 725 mmHg 78%
    05:00 +18°C° 0 mm 2 m/S 725 mmHg 77%
    06:00 +19°C° 0 mm 2 m/S 725 mmHg 73%
    07:00 +19°C° 0 mm 2 m/S 726 mmHg 68%
    08:00 +20°C° 0 mm 3 m/S 726 mmHg 63%
    09:00 +21°C° 0 mm 3 m/S 726 mmHg 58%
    10:00 +22°C° 0 mm 3 m/S 726 mmHg 52%
    11:00 +25°C° 0 mm 3 m/S 727 mmHg 46%
    12:00 +25°C° 0,1 mm 3 m/S 727 mmHg 45%
    13:00 +25°C° 0,1 mm 4 m/S 727 mmHg 44%
    14:00 +26°C° 0,1 mm 4 m/S 726 mmHg 43%
    15:00 +26°C° 0,1 mm 3 m/S 726 mmHg 43%
    16:00 +26°C° 0,1 mm 3 m/S 726 mmHg 43%
    17:00 +26°C° 0,1 mm 3 m/S 726 mmHg 43%
    18:00 +24°C° 0 mm 2 m/S 726 mmHg 47%
    19:00 +21°C° 0 mm 2 m/S 726 mmHg 51%
    20:00 +20°C° 0 mm 1 m/S 726 mmHg 56%
    21:00 +20°C° 0 mm 1 m/S 727 mmHg 57%
    22:00 +19°C° 0 mm 1 m/S 727 mmHg 58%
    23:00 +18°C° 0 mm 1 m/S 727 mmHg 59%

    23 August, Mittwoch

    Zeit Temperatur Niederschläge Wind Luftdruck Luftfeuchtigkeit
    00:00 +18°C° 0 mm 1 m/S 727 mmHg 59%
    01:00 +18°C° 0 mm 1 m/S 727 mmHg 59%
    02:00 +16°C° 0 mm 1 m/S 727 mmHg 59%
    03:00 +16°C° 0 mm 1 m/S 727 mmHg 59%
    04:00 +16°C° 0 mm 1 m/S 727 mmHg 58%
    05:00 +16°C° 0 mm 1 m/S 727 mmHg 58%
    06:00 +19°C° 0 mm 1 m/S 728 mmHg 53%
    07:00 +21°C° 0 mm 1 m/S 728 mmHg 47%
    08:00 +23°C° 0 mm 1 m/S 729 mmHg 42%
    09:00 +24°C° 0 mm 1 m/S 729 mmHg 38%
    10:00 +26°C° 0 mm 1 m/S 729 mmHg 34%
    11:00 +28°C° 0 mm 2 m/S 729 mmHg 30%
    12:00 +29°C° 0 mm 2 m/S 729 mmHg 28%
    13:00 +29°C° 0 mm 2 m/S 729 mmHg 27%
    14:00 +30°C° 0 mm 2 m/S 728 mmHg 26%
    15:00 +30°C° 0 mm 2 m/S 728 mmHg 25%
    16:00 +30°C° 0 mm 2 m/S 728 mmHg 25%
    17:00 +30°C° 0 mm 2 m/S 728 mmHg 25%
    18:00 +27°C° 0 mm 2 m/S 728 mmHg 30%
    19:00 +25°C° 0 mm 2 m/S 728 mmHg 36%
    20:00 +22°C° 0 mm 1 m/S 728 mmHg 41%
    21:00 +20°C° 0 mm 2 m/S 729 mmHg 41%
    22:00 +20°C° 0 mm 2 m/S 729 mmHg 41%
    23:00 +19°C° 0 mm 2 m/S 729 mmHg 40%

    24 August, Donnerstag

    Zeit Temperatur Niederschläge Wind Luftdruck Luftfeuchtigkeit
    00:00 +19°C° 0 mm 2 m/S 729 mmHg 41%
    01:00 +18°C° 0 mm 2 m/S 729 mmHg 42%
    02:00 +18°C° 0 mm 2 m/S 729 mmHg 43%
    03:00 +17°C° 0 mm 2 m/S 729 mmHg 44%
    04:00 +17°C° 0 mm 2 m/S 729 mmHg 45%
    05:00 +17°C° 0 mm 2 m/S 729 mmHg 47%
    06:00 +19°C° 0 mm 2 m/S 730 mmHg 42%
    07:00 +21°C° 0 mm 2 m/S 730 mmHg 38%
    08:00 +23°C° 0 mm 2 m/S 731 mmHg 34%
    09:00 +25°C° 0 mm 3 m/S 731 mmHg 31%
    10:00 +27°C° 0 mm 3 m/S 731 mmHg 27%
    11:00 +29°C° 0 mm 3 m/S 731 mmHg 24%
    12:00 +30°C° 0 mm 3 m/S 731 mmHg 22%
    13:00 +31°C° 0 mm 3 m/S 731 mmHg 20%
    14:00 +31°C° 0 mm 3 m/S 731 mmHg 19%
    15:00 +31°C° 0 mm 3 m/S 730 mmHg 19%
    16:00 +31°C° 0 mm 3 m/S 730 mmHg 19%
    17:00 +31°C° 0 mm 3 m/S 730 mmHg 19%
    18:00 +28°C° 0 mm 3 m/S 730 mmHg 24%
    19:00 +26°C° 0 mm 3 m/S 730 mmHg 29%
    20:00 +22°C° 0 mm 3 m/S 731 mmHg 35%
    21:00 +21°C° 0 mm 2 m/S 731 mmHg 41%
    22:00 +20°C° 0 mm 2 m/S 731 mmHg 47%
    23:00 +20°C° 0 mm 1 m/S 731 mmHg 52%

    25 August, Freitag

    Zeit Temperatur Niederschläge Wind Luftdruck Luftfeuchtigkeit
    00:00 +19°C° 0 mm 1 m/S 731 mmHg 55%
    01:00 +18°C° 0 mm 2 m/S 731 mmHg 57%
    02:00 +17°C° 0 mm 2 m/S 731 mmHg 59%
    03:00 +17°C° 0 mm 2 m/S 731 mmHg 61%
    04:00 +17°C° 0 mm 2 m/S 731 mmHg 63%
    05:00 +16°C° 0 mm 2 m/S 731 mmHg 64%
    06:00 +18°C° 0 mm 2 m/S 732 mmHg 59%
    07:00 +20°C° 0 mm 3 m/S 732 mmHg 54%
    08:00 +22°C° 0 mm 3 m/S 732 mmHg 49%
    09:00 +25°C° 0 mm 3 m/S 732 mmHg 43%
    10:00 +26°C° 0 mm 4 m/S 732 mmHg 36%
    11:00 +28°C° 0 mm 4 m/S 732 mmHg 30%
    12:00 +29°C° 0 mm 5 m/S 732 mmHg 28%
    13:00 +30°C° 0 mm 5 m/S 732 mmHg 25%
    14:00 +32°C° 0 mm 5 m/S 732 mmHg 22%
    15:00 +32°C° 0 mm 5 m/S 731 mmHg 23%
    16:00 +32°C° 0 mm 5 m/S 731 mmHg 23%
    17:00 +30°C° 0 mm 6 m/S 731 mmHg 24%
    18:00 +28°C° 0 mm 5 m/S 731 mmHg 30%
    19:00 +25°C° 0 mm 4 m/S 731 mmHg 36%
    20:00 +21°C° 0 mm 4 m/S 731 mmHg 42%
    21:00 +20°C° 0 mm 3 m/S 731 mmHg 49%
    22:00 +19°C° 0 mm 3 m/S 731 mmHg 56%
    23:00 +18°C° 0 mm 3 m/S 731 mmHg 62%
    Mehr zeigen